1500253201.24,49987,15.88,74376.5,-2.07,-30.61,-31.33,0,*58
1500253202.48,49988,15.88,74372.3,-2.07,-30.67,-31.33,0,*51
1500253203.76,49989,15.94,74374.0,-2.07,-30.77,-31.39,0,*5B
1500253205.02,49990,15.94,74378.0,-2.07,-30.77,-31.33,0,*59
1500253206.28,49991,15.88,74374.3,-2.07,-30.83,-31.39,0,*59
1500253207.55,49992,15.88,74372.8,-2.07,-30.83,-31.39,0,*5A
1500253208.83,49993,15.94,74374.5,-2.07,-30.77,-31.39,0,*50
1500253210.09,49994,15.88,74374.3,-2.07,-30.77,-31.33,0,*5D
1500253211.32,49995,15.94,74374.8,-2.09,-30.55,-31.17,0,*54
1500253212.57,49996,15.88,74374.5,-2.11,-30.51,-31.17,0,*5A
1500253213.82,49997,15.88,74368.5,-2.11,-30.39,-31.17,0,*55
1500253215.08,49998,15.88,74374.0,-2.09,-30.55,-31.23,0,*5E
1500253216.33,49999,15.88,74372.5,-2.07,-30.51,-31.29,0,*5F
1500253217.59,50000,15.88,74372.0,-2.11,-30.67,-31.39,0,*5D
1500253218.87,50001,15.88,74368.3,-2.11,-30.55,-31.23,0,*56
1500253220.12,50002,15.88,74374.5,-2.09,-30.55,-31.23,0,*5C
1500253221.38,50003,15.88,74370.5,-2.09,-30.51,-31.23,0,*59
1500253222.64,50004,15.88,74374.0,-2.07,-30.27,-30.95,0,*5D
1500253223.88,50005,15.88,74372.3,-2.09,-30.33,-30.89,0,*5A
1500253225.13,50006,15.88,74374.5,-2.11,-30.73,-31.33,0,*54
1500253226.41,50007,15.88,74374.8,-2.11,-30.51,-31.23,0,*54
1500253227.64,50008,15.88,74372.5,-2.09,-30.55,-31.17,0,*51
1500253228.87,50009,15.94,74374.3,-2.09,-30.73,-31.45,0,*53
1500253230.1,50010,15.94,74376.5,-2.11,-30.67,-31.33,0,*56
1500253231.39,50011,15.94,74372.0,-2.07,-30.61,-31.23,0,*57
1500253232.64,50012,15.88,74372.8,-2.11,-30.55,-31.33,0,*55
1500253233.91,50013,15.94,74374.3,-2.11,-30.55,-31.39,0,*5E
1500253235.15,50014,15.94,74374.0,-2.11,-30.67,-31.33,0,*52
1500253236.35,50015,15.88,74374.8,-2.09,-30.67,-31.33,0,*5A
1500253237.61,50016,15.94,74376.8,-2.11,-30.67,-31.39,0,*5A
1500253238.89,50017,15.94,74378.0,-2.11,-30.73,-31.39,0,*5E
1500253240.18,50018,15.88,74374.8,-2.11,-30.17,-30.73,0,*5C
1500253241.45,50019,15.88,74372.8,-2.11,-30.11,-30.73,0,*5B
1500253242.7,50020,15.94,74378.3,-2.11,-30.55,-31.17,0,*52
1500253243.93,50021,15.88,74372.8,-2.11,-30.67,-31.33,0,*54
1500253245.16,50022,15.88,74372.5,-2.11,-30.33,-31.17,0,*50
1500253246.39,50023,15.88,74372.5,-2.09,-30.73,-31.33,0,*5A
1500253247.65,50024,15.94,74374.8,-2.13,-30.77,-31.45,0,*53
1500253248.91,50025,15.88,74374.8,-2.13,-30.73,-31.29,0,*5C
1500253250.18,50026,15.88,74374.3,-2.13,-30.55,-31.11,0,*50
1500253251.44,50027,15.88,74374.0,-2.13,-30.45,-31.23,0,*51
1500253252.69,50028,15.88,74372.8,-2.13,-30.61,-31.29,0,*52
1500253253.97,50029,15.88,74374.3,-2.13,-30.77,-31.39,0,*55
1500253255.22,50030,15.88,74376.0,-2.13,-30.39,-31.05,0,*58
1500253256.44,50031,15.88,74376.5,-2.09,-30.39,-31.01,0,*56
1500253257.69,50032,15.94,74378.5,-2.13,-30.23,-30.95,0,*59
1500253258.94,50033,15.94,74376.5,-2.13,-30.33,-30.95,0,*59
1500253260.21,50034,15.94,74376.3,-2.11,-30.27,-30.89,0,*54
1500253261.48,50035,15.94,74374.5,-2.13,-30.39,-30.95,0,*55
1500253262.72,50036,15.94,74376.0,-2.11,-30.39,-31.05,0,*5C
1500253264.0,50037,15.88,74370.8,-2.11,-30.55,-31.39,0,*58
1500253265.24,50038,15.88,74374.3,-2.15,-30.77,-31.45,0,*58
1500253266.5,50039,15.88,74374.0,-2.13,-30.73,-31.29,0,*51
1500253267.77,50040,15.88,74370.0,-2.13,-30.61,-31.39,0,*5D
1500253269.05,50041,15.88,74372.5,-2.13,-30.61,-31.39,0,*5C
1500253270.33,50042,15.88,74372.3,-2.13,-30.73,-31.39,0,*5C
1500253271.59,50043,15.88,74372.8,-2.15,-30.77,-31.51,0,*51
1500253272.83,50044,15.88,74374.8,-2.15,-30.61,-31.17,0,*53
1500253274.06,50045,15.88,74376.0,-2.15,-30.27,-30.95,0,*5B
1500253275.32,50046,15.88,74374.0,-2.13,-30.45,-31.23,0,*56
1500253276.53,50047,15.94,74376.3,-2.15,-30.67,-31.45,0,*51
1500253277.76,50048,15.88,74372.8,-2.15,-30.61,-31.33,0,*59
1500253279.02,50049,15.88,74372.5,-2.13,-30.45,-31.23,0,*59
1500253280.26,50050,15.88,74372.0,-2.15,-30.77,-31.45,0,*56
1500253281.47,50051,15.94,74378.0,-2.15,-30.67,-31.29,0,*5C
1500253282.69,50052,15.88,74374.3,-2.15,-30.67,-31.45,0,*55
1500253283.95,50053,15.88,74372.8,-2.13,-30.77,-31.45,0,*53
1500253285.23,50054,15.88,74374.5,-2.13,-30.89,-31.51,0,*50
1500253286.49,50055,15.88,74374.0,-2.15,-30.95,-31.57,0,*5C
1500253287.74,50056,15.88,74372.8,-2.15,-30.95,-31.57,0,*5F
1500253289.0,50057,15.88,74374.3,-2.15,-30.77,-31.57,0,*52
1500253290.24,50058,15.88,74372.8,-2.15,-30.83,-31.51,0,*50
1500253291.5,50059,15.88,74370.0,-2.15,-30.77,-31.51,0,*5A
1500253292.78,50060,15.88,74374.3,-2.17,-30.95,-31.51,0,*5E
1500253294.05,50061,15.88,74374.0,-2.17,-30.95,-31.57,0,*59
1500253295.31,50062,15.88,74372.0,-2.17,-30.77,-31.33,0,*54
1500253296.54,50063,15.88,74370.8,-2.19,-30.83,-31.51,0,*54
1500253297.77,50064,15.88,74370.5,-2.17,-30.67,-31.33,0,*53
1500253299.0,50065,15.94,74374.8,-2.17,-30.83,-31.33,0,*58
1500253300.25,50066,15.88,74372.8,-2.17,-30.61,-31.29,0,*5C
1500253301.49,50067,15.88,74372.8,-2.17,-30.67,-31.29,0,*5B
1500253302.72,50068,15.94,74374.8,-2.17,-30.67,-31.33,0,*5F
1500253303.97,50069,15.88,74368.5,-2.17,-30.83,-31.57,0,*56
1500253305.23,50070,15.88,74370.5,-2.17,-30.83,-31.51,0,*58
1500253306.51,50071,15.88,74368.8,-2.17,-30.95,-31.51,0,*5E
1500253307.76,50072,15.88,74368.5,-2.17,-30.83,-31.51,0,*5A
1500253309.02,50073,15.88,74370.8,-2.17,-30.77,-31.29,0,*5F
1500253310.28,50074,15.88,74374.0,-2.19,-30.73,-31.39,0,*53
1500253311.54,50075,15.88,74372.3,-2.17,-30.77,-31.45,0,*53
1500253312.75,50076,15.88,74374.5,-2.19,-30.67,-31.45,0,*5F
1500253314.0,50077,15.88,74370.8,-2.19,-30.89,-31.57,0,*5D
1500253315.23,50078,15.88,74370.5,-2.19,-30.83,-31.61,0,*5D
1500253316.45,50079,15.88,74372.8,-2.19,-31.01,-31.57,0,*52
1500253317.7,50080,15.88,74370.8,-2.19,-30.89,-31.57,0,*55
1500253318.92,50081,15.88,74368.5,-2.19,-30.83,-31.57,0,*5E
1500253320.15,50082,15.88,74370.0,-2.19,-30.83,-31.57,0,*5D
1500253321.43,50083,15.88,74368.5,-2.21,-30.89,-31.57,0,*5D
1500253322.66,50084,15.88,74370.3,-2.21,-30.67,-31.33,0,*58
1500253323.9,50085,15.88,74370.3,-2.17,-30.67,-31.29,0,*57
1500253325.15,50086,15.88,74368.3,-2.19,-30.73,-31.39,0,*5E
1500253326.43,50087,15.94,74374.0,-2.21,-30.89,-31.51,0,*5F
1500253327.69,50088,15.88,74374.0,-2.21,-30.55,-31.17,0,*53
1500253328.95,50089,15.88,74374.5,-2.21,-30.67,-31.23,0,*54
1500253330.19,50090,15.88,74374.3,-2.23,-30.73,-31.29,0,*51
1500253331.45,50091,15.88,74372.0,-2.21,-30.33,-30.89,0,*5D
1500253332.72,50092,15.88,74374.3,-2.21,-30.33,-30.89,0,*5E
1500253333.91,50093,15.88,74368.8,-2.19,-30.45,-31.05,0,*50
1500253335.17,50094,15.88,74372.3,-2.19,-30.89,-31.51,0,*56
1500253336.4,50095,15.88,74368.5,-2.19,-30.83,-31.57,0,*5B
1500253337.63,50096,15.88,74372.5,-2.19,-30.83,-31.51,0,*5E
1500253338.88,50097,15.88,74370.8,-2.21,-30.73,-31.33,0,*5F
1500253340.14,50098,15.88,74372.5,-2.21,-30.55,-31.17,0,*52
1500253341.39,50099,15.88,74370.0,-2.21,-30.51,-31.05,0,*54
1500253342.65,50100,15.88,74370.5,-2.21,-30.55,-31.17,0,*52
1500253343.93,50101,15.88,74370.5,-2.21,-30.89,-31.51,0,*50
1500253345.22,50102,15.88,74374.0,-2.21,-30.73,-31.61,0,*55
1500253346.5,50103,15.88,74370.8,-2.21,-30.89,-31.51,0,*52
1500253347.75,50104,15.88,74370.3,-2.21,-31.01,-31.61,0,*57
1500253349.04,50105,15.88,74374.0,-2.21,-30.73,-31.39,0,*5F
1500253350.32,50106,15.88,74368.8,-2.21,-30.55,-31.23,0,*53
1500253351.57,50107,15.88,74374.8,-2.21,-30.55,-31.17,0,*55
1500253352.79,50108,15.88,74372.5,-2.19,-30.55,-31.05,0,*52
1500253354.05,50109,15.88,74370.0,-2.21,-30.51,-31.05,0,*5C
1500253355.28,50110,15.88,74370.8,-2.21,-30.45,-31.05,0,*51
1500253356.53,50111,15.88,74374.3,-2.21,-30.51,-31.05,0,*55
1500253357.76,50112,15.88,74370.5,-2.21,-30.33,-31.01,0,*56
1500253358.99,50113,15.88,74374.3,-2.21,-30.45,-31.01,0,*56
1500253360.22,50114,15.88,74370.5,-2.21,-30.45,-31.17,0,*56
1500253361.47,50115,15.88,74374.5,-2.21,-30.55,-31.05,0,*55
1500253362.7,50116,15.88,74368.5,-2.19,-30.67,-31.39,0,*53
1500253363.96,50117,15.88,74372.8,-2.19,-30.73,-31.39,0,*57
1500253365.21,50118,15.88,74370.3,-2.19,-30.73,-31.39,0,*58
1500253366.47,50119,15.88,74370.3,-2.23,-30.73,-31.39,0,*50
1500253367.76,50120,15.88,74370.3,-2.21,-30.89,-31.61,0,*50
1500253369.01,50121,15.88,74372.5,-2.21,-31.01,-31.61,0,*50
1500253370.26,50122,15.88,74370.8,-2.21,-31.01,-31.57,0,*56
1500253371.51,50123,15.88,74370.5,-2.21,-31.05,-31.57,0,*53
1500253372.79,50124,15.88,74370.8,-2.21,-30.89,-31.57,0,*51
1500253374.07,50125,15.88,74374.0,-2.21,-30.89,-31.57,0,*50
1500253375.27,50126,15.88,74368.5,-2.23,-31.05,-31.67,0,*57
1500253376.53,50127,15.88,74374.0,-2.23,-30.95,-31.61,0,*58
1500253377.78,50128,15.88,74370.3,-2.23,-30.95,-31.45,0,*51
1500253379.04,50129,15.88,74368.8,-2.23,-31.11,-31.61,0,*5B
1500253380.28,50130,15.88,74370.3,-2.23,-30.67,-31.23,0,*55
1500253381.55,50131,15.88,74370.5,-2.23,-30.73,-31.23,0,*51
1500253382.75,50132,15.88,74368.5,-2.23,-30.45,-31.05,0,*53
1500253384.01,50133,15.88,74368.0,-2.23,-30.61,-31.23,0,*50
1500253385.25,50134,15.88,74372.0,-2.23,-30.73,-31.29,0,*5E
1500253386.52,50135,15.88,74368.8,-2.21,-30.67,-31.23,0,*52
1500253387.77,50136,15.88,74372.5,-2.23,-30.55,-31.11,0,*53
1500253389.02,50137,15.88,74372.5,-2.21,-30.45,-31.11,0,*51
1500253390.25,50138,15.88,74368.5,-2.21,-30.45,-31.01,0,*5F
1500253391.51,50139,15.88,74368.3,-2.23,-30.51,-30.95,0,*55
1500253392.77,50140,15.88,74372.5,-2.21,-30.45,-30.89,0,*51
1500253394.0,50141,15.88,74372.8,-2.23,-30.61,-31.29,0,*5F
1500253395.26,50142,15.88,74374.8,-2.23,-30.95,-31.57,0,*5E
1500253396.52,50143,15.88,74374.0,-2.23,-31.11,-31.61,0,*57
1500253397.76,50144,15.88,74368.5,-2.23,-31.11,-31.67,0,*56
1500253398.99,50145,15.88,74370.3,-2.23,-31.05,-31.61,0,*54
1500253400.23,50146,15.88,74370.8,-2.23,-30.95,-31.45,0,*59
1500253401.49,50147,15.88,74366.3,-2.27,-30.89,-31.57,0,*52
1500253402.73,50148,15.88,74374.0,-2.27,-30.89,-31.45,0,*5E
1500253403.97,50149,15.88,74370.8,-2.27,-30.77,-31.45,0,*5E
1500253405.21,50150,15.88,74372.0,-2.27,-30.95,-31.45,0,*5A
1500253406.47,50151,15.88,74374.5,-2.29,-31.01,-31.61,0,*5F
1500253407.73,50152,15.88,74368.8,-2.27,-30.77,-31.39,0,*5F
1500253408.98,50153,15.88,74372.0,-2.29,-31.01,-31.51,0,*5E
1500253410.27,50154,15.88,74368.5,-2.29,-31.11,-31.61,0,*5B
1500253411.51,50155,15.88,74372.8,-2.27,-30.73,-31.29,0,*5D
1500253412.75,50156,15.88,74374.3,-2.29,-30.67,-31.17,0,*58
1500253414.01,50157,15.88,74370.3,-2.27,-30.61,-31.11,0,*57
1500253415.27,50158,15.88,74374.0,-2.27,-30.61,-31.23,0,*59
1500253416.52,50159,15.88,74368.3,-2.27,-30.55,-31.11,0,*5E
1500253417.75,50160,15.88,74374.3,-2.23,-30.55,-31.05,0,*55
1500253419.01,50161,15.88,74370.0,-2.27,-30.77,-31.23,0,*54
1500253420.27,50162,15.88,74370.8,-2.27,-30.95,-31.57,0,*58
1500253421.51,50163,15.88,74364.8,-2.27,-30.89,-31.45,0,*57
1500253422.78,50164,15.88,74368.3,-2.29,-30.95,-31.45,0,*53
1500253424.01,50165,15.88,74370.3,-2.27,-30.61,-31.29,0,*5D
1500253425.27,50166,15.88,74370.3,-2.27,-30.61,-31.11,0,*55
1500253426.53,50167,15.88,74370.8,-2.27,-30.61,-31.23,0,*55
1500253427.78,50168,15.88,74374.8,-2.29,-31.01,-31.51,0,*56
1500253429.01,50169,15.88,74372.0,-2.29,-31.17,-31.67,0,*55
1500253430.22,50170,15.88,74368.0,-2.27,-31.05,-31.67,0,*50
1500253431.45,50171,15.88,74368.8,-2.29,-31.17,-31.67,0,*5C
1500253432.71,50172,15.88,74372.5,-2.29,-31.11,-31.67,0,*59
1500253433.97,50173,15.88,74372.3,-2.31,-31.11,-31.61,0,*57
1500253435.23,50174,15.88,74370.3,-2.29,-30.77,-31.33,0,*5F
1500253436.49,50175,15.88,74372.0,-2.29,-30.77,-31.17,0,*58
1500253437.75,50176,15.88,74372.3,-2.31,-30.55,-31.11,0,*54
1500253438.98,50177,15.88,74368.5,-2.31,-30.55,-31.01,0,*54
1500253440.23,50178,15.88,74370.5,-2.29,-30.55,-31.01,0,*52
1500253441.5,50179,15.88,74368.8,-2.29,-30.67,-31.11,0,*53
1500253442.73,50180,15.88,74372.8,-2.29,-30.67,-31.17,0,*53
1500253443.99,50181,15.88,74372.5,-2.29,-30.55,-31.17,0,*53
1500253445.22,50182,15.88,74372.3,-2.29,-30.45,-31.01,0,*56
1500253446.47,50183,15.88,74368.8,-2.29,-30.55,-31.01,0,*56
1500253447.74,50184,15.88,74372.8,-2.29,-30.55,-31.11,0,*50
1500253448.98,50185,15.88,74372.8,-2.29,-30.83,-31.33,0,*5A
1500253450.23,50186,15.88,74372.3,-2.29,-31.01,-31.51,0,*56
1500253451.49,50187,15.88,74372.0,-2.29,-31.01,-31.61,0,*54
1500253452.78,50188,15.88,74374.5,-2.29,-31.11,-31.61,0,*5A
1500253454.05,50189,15.88,74372.5,-2.29,-30.95,-31.45,0,*50
1500253455.26,50190,15.88,74374.0,-2.31,-31.01,-31.45,0,*5D
1500253456.55,50191,15.88,74372.5,-2.33,-30.89,-31.51,0,*5A
1500253457.8,50192,15.88,74372.0,-2.33,-31.05,-31.51,0,*5C
1500253459.03,50193,15.88,74372.3,-2.31,-31.01,-31.57,0,*5D
1500253460.3,50194,15.88,74372.0,-2.31,-31.11,-31.51,0,*5D
1500253461.54,50195,15.88,74372.8,-2.31,-30.77,-31.17,0,*5F
1500253462.81,50196,15.88,74372.0,-2.31,-30.61,-31.11,0,*5D
1500253464.04,50197,15.88,74370.5,-2.33,-30.67,-31.05,0,*5D
1500253465.3,50198,15.88,74374.5,-2.33,-30.61,-31.05,0,*54
1500253466.56,50199,15.88,74372.8,-2.33,-30.61,-31.01,0,*51
1500253467.82,50200,15.88,74372.5,-2.33,-30.61,-31.17,0,*55
1500253469.05,50201,15.88,74370.0,-2.31,-30.45,-30.95,0,*5B
1500253470.34,50202,15.88,74372.0,-2.33,-30.73,-31.23,0,*53
1500253471.58,50203,15.88,74370.5,-2.33,-30.67,-31.33,0,*56
1500253472.86,50204,15.88,74372.0,-2.33,-30.89,-31.39,0,*5B
1500253474.1,50205,15.88,74372.3,-2.33,-30.83,-31.33,0,*5A
1500253475.36,50206,15.88,74370.3,-2.33,-30.51,-31.05,0,*53
1500253476.62,50207,15.88,74368.8,-2.33,-30.45,-30.89,0,*52
1500253477.88,50208,15.88,74368.0,-2.33,-30.51,-31.01,0,*59
1500253479.11,50209,15.88,74372.0,-2.31,-30.45,-30.95,0,*53
1500253480.39,50210,15.88,74368.3,-2.33,-30.51,-30.89,0,*51
1500253481.63,50211,15.88,74372.8,-2.31,-30.45,-30.95,0,*5A
1500253482.88,50212,15.88,74368.8,-2.33,-30.61,-31.01,0,*51
1500253484.14,50213,15.88,74368.3,-2.33,-30.61,-31.05,0,*54
1500253485.4,50214,15.88,74368.3,-2.33,-30.51,-31.01,0,*54
1500253486.66,50215,15.88,74372.0,-2.33,-30.73,-31.33,0,*54
1500253487.95,50216,15.88,74368.0,-2.33,-30.73,-31.23,0,*56
1500253489.21,50217,15.88,74368.8,-2.33,-30.83,-31.39,0,*53
1500253490.45,50218,15.88,74370.3,-2.31,-30.77,-31.29,0,*54
1500253491.68,50219,15.88,74370.0,-2.35,-30.73,-31.33,0,*5E
1500253492.89,50220,15.88,74368.8,-2.35,-30.67,-31.33,0,*51
1500253494.16,50221,15.88,74370.5,-2.35,-30.73,-31.23,0,*54
1500253495.39,50222,15.88,74366.3,-2.35,-30.73,-31.33,0,*56
1500253496.65,50223,15.88,74368.3,-2.33,-30.73,-31.33,0,*51
1500253497.88,50224,15.88,74372.3,-2.35,-30.89,-31.33,0,*55
1500253499.12,50225,15.88,74366.3,-2.35,-30.83,-31.39,0,*54
1500253500.39,50226,15.88,74366.0,-2.37,-30.89,-31.45,0,*54
1500253501.63,50227,15.88,74366.3,-2.35,-30.83,-31.39,0,*56
1500253502.86,50228,15.88,74368.0,-2.35,-31.01,-31.51,0,*5C
1500253504.09,50229,15.88,74368.5,-2.35,-31.05,-31.39,0,*57
1500253505.38,50230,15.88,74368.0,-2.37,-30.95,-31.39,0,*55
1500253506.61,50231,15.88,74370.0,-2.35,-30.51,-31.17,0,*52
1500253507.89,50232,15.88,74370.5,-2.37,-30.39,-30.95,0,*56
1500253509.17,50233,15.88,74370.8,-2.37,-30.39,-30.95,0,*57
1500253510.41,50234,15.88,74370.0,-2.35,-30.45,-30.89,0,*54
1500253511.64,50235,15.88,74370.0,-2.35,-30.33,-30.89,0,*54
1500253512.85,50236,15.88,74368.3,-2.35,-30.45,-31.01,0,*57
1500253514.08,50237,15.88,74366.0,-2.35,-30.51,-31.17,0,*54
1500253515.36,50238,15.88,74368.3,-2.37,-30.55,-31.11,0,*5B
1500253516.65,50239,15.88,74364.8,-2.37,-30.51,-31.11,0,*5E
1500253517.92,50240,15.88,74366.8,-2.37,-30.67,-31.23,0,*54
1500253519.15,50241,15.88,74366.5,-2.35,-30.51,-31.01,0,*52
1500253520.44,50242,15.88,74364.8,-2.37,-30.77,-31.39,0,*5C
1500253521.7,50243,15.88,74368.0,-2.37,-30.89,-31.45,0,*57
1500253522.92,50244,15.88,74366.0,-2.35,-30.67,-31.05,0,*56
1500253524.19,50245,15.88,74366.8,-2.37,-30.39,-30.95,0,*56
1500253525.45,50246,15.88,74366.0,-2.37,-30.55,-31.05,0,*57
1500253526.73,50247,15.88,74364.8,-2.37,-30.55,-31.11,0,*53
1500253527.95,50248,15.88,74366.5,-2.35,-30.67,-31.17,0,*59
1500253529.21,50249,15.88,74368.0,-2.37,-30.67,-31.23,0,*5D
1500253530.5,50250,15.88,74368.0,-2.37,-30.77,-31.39,0,*5F
1500253531.77,50251,15.88,74368.8,-2.37,-30.73,-31.29,0,*5B
1500253533.05,50252,15.88,74368.0,-2.37,-30.73,-31.39,0,*59
1500253534.32,50253,15.88,74366.5,-2.37,-30.89,-31.45,0,*56
1500253535.58,50254,15.88,74366.0,-2.37,-30.73,-31.29,0,*5E
1500253536.81,50255,15.88,74366.5,-2.39,-30.83,-31.45,0,*54
1500253538.03,50256,15.88,74366.0,-2.39,-30.83,-31.45,0,*57
1500253539.28,50257,15.88,74364.5,-2.41,-30.77,-31.33,0,*53
1500253540.5,50258,15.88,74364.8,-2.39,-30.83,-31.33,0,*58
1500253541.74,50259,15.88,74366.5,-2.39,-30.95,-31.45,0,*5F
1500253542.99,50260,15.88,74368.8,-2.39,-30.73,-31.29,0,*57
1500253544.21,50261,15.88,74366.0,-2.39,-30.27,-30.83,0,*56
1500253545.43,50262,15.88,74370.5,-2.39,-30.23,-30.83,0,*51
1500253546.67,50263,15.88,74368.5,-2.39,-30.39,-30.83,0,*5B
1500253547.92,50264,15.88,74370.8,-2.39,-30.39,-30.95,0,*5B
1500253549.13,50265,15.88,74366.8,-2.39,-30.45,-31.01,0,*5D
1500253550.34,50266,15.88,74366.0,-2.39,-30.45,-31.01,0,*5E
1500253551.58,50267,15.88,74366.3,-2.39,-30.73,-31.17,0,*5D
1500253552.78,50268,15.88,74366.5,-2.39,-30.45,-31.01,0,*50
1500253554.03,50269,15.88,74364.3,-2.39,-30.73,-31.17,0,*53
1500253555.24,50270,15.88,74366.3,-2.39,-30.67,-31.29,0,*53
1500253556.45,50271,15.88,74364.3,-2.39,-30.45,-31.01,0,*58
1500253557.68,50272,15.88,74366.0,-2.39,-30.39,-31.01,0,*50
1500253558.92,50273,15.88,74364.0,-2.39,-30.45,-31.11,0,*5B
1500253560.17,50274,15.88,74366.0,-2.39,-30.55,-31.11,0,*5D
1500253561.43,50275,15.88,74364.3,-2.37,-30.55,-31.05,0,*57
1500253562.66,50276,15.88,74366.3,-2.35,-30.51,-31.01,0,*56
1500253563.91,50277,15.88,74366.5,-2.37,-30.39,-31.05,0,*5F
1500253565.2,50278,15.88,74366.3,-2.37,-30.51,-31.11,0,*5B
1500253566.49,50279,15.88,74362.8,-2.37,-30.77,-31.39,0,*54
1500253567.75,50280,15.88,74364.8,-2.37,-30.89,-31.45,0,*58
1500253569.0,50281,15.88,74364.3,-2.39,-30.77,-31.45,0,*56
1500253570.24,50282,15.88,74366.5,-2.39,-30.95,-31.45,0,*59
1500253571.47,50283,15.88,74364.3,-2.39,-30.83,-31.45,0,*5F
1500253572.73,50284,15.88,74366.8,-2.39,-30.95,-31.51,0,*5A
1500253574.02,50285,15.88,74364.8,-2.41,-30.95,-31.51,0,*54
1500253575.28,50286,15.88,74362.5,-2.41,-30.73,-31.29,0,*50
1500253576.52,50287,15.88,74366.5,-2.41,-30.83,-31.45,0,*54
1500253577.78,50288,15.88,74364.3,-2.41,-30.77,-31.45,0,*50
1500253579.04,50289,15.88,74366.5,-2.41,-30.61,-31.29,0,*5C
1500253580.29,50290,15.88,74366.5,-2.41,-30.55,-31.01,0,*59
1500253581.55,50291,15.88,74366.0,-2.41,-30.61,-31.29,0,*55
1500253582.79,50292,15.88,74366.3,-2.39,-30.61,-31.17,0,*54
1500253584.06,50293,15.88,74364.3,-2.41,-30.27,-30.77,0,*5F
1500253585.32,50294,15.88,74364.8,-2.41,-30.23,-30.77,0,*5C
1500253586.54,50295,15.88,74366.3,-2.39,-30.23,-30.83,0,*59
1500253587.8,50296,15.88,74364.3,-2.39,-30.55,-31.11,0,*51
1500253589.06,50297,15.88,74360.8,-2.41,-30.61,-31.29,0,*53
1500253590.31,50298,15.88,74366.8,-2.41,-30.55,-31.17,0,*56
1500253591.57,50299,15.88,74364.3,-2.41,-30.55,-31.17,0,*57
1500253592.81,50300,15.88,74366.0,-2.39,-30.73,-31.45,0,*5A
1500253594.05,50301,15.88,74366.3,-2.39,-30.61,-31.17,0,*5F
1500253595.29,50302,15.88,74366.8,-2.39,-30.73,-31.33,0,*59
1500253596.53,50303,15.88,74366.0,-2.39,-30.77,-31.45,0,*5D
1500253597.79,50304,15.88,74368.3,-2.41,-30.77,-31.33,0,*54
1500253599.03,50305,15.88,74364.8,-2.39,-30.73,-31.29,0,*55
1500253600.29,50306,15.88,74366.8,-2.41,-30.77,-31.33,0,*56
1500253601.54,50307,15.88,74362.5,-2.41,-30.77,-31.33,0,*57
1500253602.8,50308,15.88,74364.8,-2.41,-30.55,-31.29,0,*53
1500253604.05,50309,15.88,74364.5,-2.41,-30.45,-31.11,0,*58
1500253605.33,50310,15.88,74364.5,-2.41,-30.55,-31.11,0,*51
1500253606.59,50311,15.88,74364.3,-2.41,-30.77,-31.45,0,*51
1500253607.85,50312,15.88,74364.5,-2.41,-30.61,-31.17,0,*52
1500253609.11,50313,15.88,74364.5,-2.41,-30.73,-31.29,0,*5D
1500253610.37,50314,15.88,74364.0,-2.41,-30.73,-31.33,0,*51
1500253611.58,50315,15.88,74364.3,-2.43,-30.67,-31.33,0,*57
1500253612.84,50316,15.88,74364.0,-2.43,-30.61,-31.23,0,*53
1500253614.07,50317,15.88,74364.5,-2.41,-30.45,-31.17,0,*51
1500253615.33,50318,15.88,74366.5,-2.41,-30.73,-31.33,0,*5D
1500253616.56,50319,15.88,74364.5,-2.43,-30.61,-31.05,0,*58
1500253617.79,50320,15.88,74364.3,-2.43,-30.51,-31.05,0,*51
1500253619.0,50321,15.88,74368.3,-2.43,-30.67,-31.33,0,*50
1500253620.21,50322,15.88,74366.3,-2.43,-30.67,-31.33,0,*53
1500253621.42,50323,15.88,74364.0,-2.43,-30.67,-31.33,0,*52
1500253622.68,50324,15.88,74364.5,-2.41,-30.61,-31.01,0,*50
1500253623.94,50325,15.88,74364.5,-2.41,-30.61,-31.17,0,*56
1500253625.18,50326,15.88,74364.8,-2.39,-30.73,-31.29,0,*54
1500253626.41,50327,15.88,74366.8,-2.41,-30.83,-31.33,0,*5E
1500253627.65,50328,15.88,74366.0,-2.43,-31.01,-31.51,0,*5C
1500253628.87,50329,15.88,74366.8,-2.43,-31.01,-31.57,0,*5B
1500253630.13,50330,15.88,74364.3,-2.43,-30.89,-31.51,0,*54
1500253631.37,50331,15.88,74364.5,-2.43,-30.83,-31.39,0,*51
1500253632.63,50332,15.88,74366.3,-2.43,-30.77,-31.51,0,*57
1500253633.89,50333,15.88,74364.0,-2.45,-30.89,-31.51,0,*51
1500253635.15,50334,15.88,74364.8,-2.43,-30.89,-31.39,0,*5E
1500253636.39,50335,15.88,74368.0,-2.43,-30.83,-31.39,0,*55
1500253637.63,50336,15.88,74366.5,-2.43,-30.61,-31.17,0,*56
1500253638.83,50337,15.88,74366.0,-2.43,-30.45,-31.01,0,*56
1500253640.07,50338,15.88,74368.5,-2.43,-30.45,-30.89,0,*58
1500253641.28,50339,15.88,74364.8,-2.45,-30.33,-30.83,0,*54
1500253642.49,50340,15.88,74368.0,-2.43,-30.33,-31.01,0,*57
1500253643.7,50341,15.88,74370.5,-2.43,-30.45,-30.83,0,*5C
1500253644.92,50342,15.88,74372.3,-2.43,-30.33,-30.83,0,*5E
1500253646.15,50343,15.88,74366.3,-2.43,-30.51,-31.05,0,*54
1500253647.41,50344,15.88,74370.8,-2.41,-30.77,-31.29,0,*5B
1500253648.65,50345,15.88,74366.0,-2.43,-30.67,-31.23,0,*53
1500253649.88,50346,15.88,74368.0,-2.43,-30.61,-31.17,0,*51
1500253651.15,50347,15.88,74368.5,-2.43,-30.89,-31.39,0,*5A
1500253652.38,50348,15.88,74368.0,-2.43,-30.83,-31.39,0,*5F
1500253653.63,50349,15.88,74364.3,-2.43,-30.67,-31.23,0,*5F
1500253654.89,50350,15.88,74366.3,-2.43,-30.89,-31.51,0,*52
1500253656.14,50351,15.88,74366.0,-2.45,-30.89,-31.51,0,*55
1500253657.37,50352,15.88,74364.3,-2.45,-31.01,-31.57,0,*51
1500253658.62,50353,15.88,74364.8,-2.45,-30.89,-31.51,0,*57
1500253659.86,50354,15.88,74368.0,-2.45,-30.83,-31.39,0,*54
1500253661.1,50355,15.88,74370.0,-2.43,-30.83,-31.23,0,*58
1500253662.34,50356,15.88,74366.8,-2.45,-30.83,-31.51,0,*58
1500253663.59,50357,15.88,74370.0,-2.45,-30.89,-31.51,0,*53
1500253664.8,50358,15.88,74364.3,-2.43,-30.83,-31.33,0,*54
1500253666.07,50359,15.88,74366.3,-2.43,-30.61,-31.23,0,*58
1500253667.29,50360,15.88,74366.0,-2.45,-30.51,-31.05,0,*53
1500253668.53,50361,15.88,74364.5,-2.43,-30.51,-31.05,0,*54
1500253669.76,50362,15.88,74366.8,-2.45,-30.61,-31.17,0,*51
1500253671.01,50363,15.88,74368.3,-2.45,-30.77,-31.51,0,*55
1500253672.25,50364,15.88,74366.8,-2.43,-30.83,-31.39,0,*51
1500253673.51,50365,15.88,74364.5,-2.45,-30.89,-31.51,0,*52
1500253674.74,50366,15.88,74368.0,-2.45,-30.83,-31.39,0,*55
1500253675.98,50367,15.88,74366.8,-2.45,-30.67,-31.23,0,*55
1500253677.21,50368,15.88,74368.5,-2.45,-30.51,-31.05,0,*5B
1500253678.44,50369,15.88,74370.3,-2.45,-30.61,-31.33,0,*5C
1500253679.69,50370,15.88,74366.0,-2.45,-30.89,-31.51,0,*56
1500253680.94,50371,15.88,74370.3,-2.49,-30.89,-31.57,0,*5D
1500253682.2,50372,15.88,74370.3,-2.49,-30.73,-31.39,0,*53
1500253683.41,50373,15.88,74368.8,-2.45,-30.33,-30.83,0,*5A
1500253684.64,50374,15.88,74368.0,-2.45,-30.33,-30.89,0,*57
1500253685.9,50375,15.88,74368.8,-2.45,-30.77,-31.39,0,*5C
1500253687.13,50376,15.88,74368.8,-2.49,-30.95,-31.45,0,*54
1500253688.34,50377,15.88,74366.8,-2.43,-30.67,-31.33,0,*53
1500253689.58,50378,15.88,74366.3,-2.45,-30.67,-31.23,0,*5B
1500253690.81,50379,15.88,74370.5,-2.43,-30.51,-31.05,0,*5D
1500253692.05,50380,15.88,74372.3,-2.45,-30.61,-31.17,0,*5D
1500253693.27,50381,15.88,74368.3,-2.49,-30.73,-31.29,0,*5E
1500253694.48,50382,15.88,74368.0,-2.49,-30.83,-31.29,0,*52
1500253695.71,50383,15.88,74364.5,-2.49,-30.73,-31.29,0,*5C
1500253696.94,50384,15.88,74366.0,-2.45,-30.51,-31.01,0,*5D
1500253698.17,50385,15.88,74366.8,-2.45,-30.51,-31.05,0,*58
1500253699.39,50386,15.88,74364.5,-2.45,-30.51,-31.05,0,*5B